Find Starlink 36556

NORAD ID: 67642 Int'l Des: 2026-020 Owner: SPXS Country: US Constellation: starlink operational
LEOCIRCULAR

現在のビュー

3D地球を読み込み中...

Starlink 36556について

説明を読み込み中...

次回通過

Passes for default location (London). Set your location on the main map for personalized predictions.

高度履歴

Loading altitude history...

軌道要素

1 67642U 26020AB 26146.13155861 .00016764 00000-0 61711-3 0 9997
2 67642 43.0004 62.7439 0000928 246.2566 113.8188 15.27591454 17954
Epoch: May 26, 2026 • Age: 20 hours

現在のステータス

高度 491.2 km
速度 7.62 km/s
衛星直下点 -32.20°S, 50.81°E
打ち上げ日 Jan 30, 2026
運用期間 0.3 years
タイプ internet

技術仕様

分類 Payload
質量 575.00 kg
乾燥質量 530.00 kg
総質量 575.00 kg
長さ 0.30 m
直径 4.10 m
スパン 29.00 m
形状 Box + pan
製造者 SPXS
バスタイプ Starlink V2MO
フェーズステータス In Orbit
所有者/国 SPXS/US

Most Searched